User: anonymous   Login
Location: Asheville, NC
(35.6000°N, 82.5500°W)
Time: 21:49:13
(UTC-04:00)
Language:

LilacSat-2 - Orbit

View from above orbital plane
View from above orbital plane
View from above satellite
View from above satellite

Ground track
Ground track

The orbit data is extracted from the following two-line orbital elements,

1 40908U 15049K   18115.51831326  .00000412  00000-0  26641-4 0  9995
2 40908  97.4689 119.1070 0015259 206.4330 153.6125 15.13470850143404
Epoch (UTC): 25 April 2018 12:26:22
Eccentricity: 0.0015259
inclination: 97.4689°
perigee height: 515 km
apogee height: 536 km
right ascension of ascending node: 119.1070°
argument of perigee: 206.4330°
revolutions per day: 15.13470850
mean anomaly at epoch: 153.6125°
orbit number at epoch: 14340

The dashed part of the orbit path shows where the satellite is in the earth's shadow,  

DLR